Terminal Aerodrome Forecast
Issued by NWS

Home | Current Version | Previous Version | Text Only | Print | Product List | Glossary On
Versions: 1 2 3 4 5 6 7 8 9 10 11 12 13 14
000
FTAK31 PANC 222205 AAA
TAFAVD
TAF AMD
PAVD 222205Z 2222/2318 VRB03KT P6SM FEW005 BKN040 OVC060
      TEMPO 2222/2301 1/2SM -SN FG BKN007
     FM230200 VRB03KT P6SM VCSH SCT030 OVC045
      AMD LTD TO CLD VIS AND WIND=

USA.gov is the U.S. government's official web portal to all federal, state and local government web resources and services.